Hourly Data Report for January 12, 2018

All times are specified in Local Standard Time (LST). Add 1 hour to adjust for Daylight Saving Time where and when it is observed.

VANCOUVER INTL A
BRITISH COLUMBIA

49°11'41.000" N
123°11'02.000" W
4.30 m
1108395
71892
YVR

Download Data

Hourly Data (January 2018)
Hourly Data Report for January 12, 2018
Temp Definition
°C
Dew Point Temp Definition
°C
Rel Hum Definition
%
Wind Dir Definition
10's deg

Wind Spd Definition
km/h
Visibility Definition
km
Stn Press Definition
kPa
Hmdx Definition


Wind Chill Definition


Weather Definition


TIME
00:00 2.4 2.0 97 9 12 24.1 101.69     Rain
01:00 2.6 2.2 98 14 8 16.1 101.75     Rain
02:00 2.5 2.3 99 12 6 4.8 101.84     Rain,Drizzle,Fog
03:00 2.6 2.5 99 12 4 2.8 101.98     Rain,Drizzle,Fog
04:00 2.7 2.5 99 15 4 2.8 102.03     Drizzle,Fog
05:00 2.8 2.7 99 31 3 2.4 102.13     Drizzle,Fog
06:00 2.9 2.8 99 14 3 2.8 102.12     Rain,Drizzle,Fog
07:00 3.1 3.0 99 18 5 4.8 102.19     Fog
08:00 3.2 3.0 99 12 5 3.2 102.20     Drizzle,Fog
09:00 3.4 3.3 99 20 5 2.4 102.29     Drizzle,Fog
10:00 3.7 3.5 99 22 5 2.4 102.36     Drizzle,Fog
11:00 4.1 3.9 99 15 4 2.4 102.43     Rain,Drizzle,Fog
12:00 4.5 4.2 98 36 3 12.9 102.46     LegendNANA
13:00 4.9 4.2 96 18 7 16.1 102.47     Rain
14:00 4.4 3.9 96 20 7 16.1 102.51     Rain
15:00 4.4 4.0 97 20 4 12.9 102.58     Rain
16:00 4.5 4.1 97 13 8 12.9 102.66     Rain
17:00 4.3 4.0 97 9 11 12.9 102.69     Rain
18:00 4.3 3.9 97 10 12 16.1 102.75     Rain
19:00 4.3 3.9 97 9 17 12.9 102.75     Rain
20:00 4.5 4.0 97 9 17 16.1 102.75     Rain
21:00 4.9 4.5 97 9 17 16.1 102.71     Rain
22:00 5.4 5.0 97 8 13 16.1 102.74     Rain
23:00 6.0 5.4 96 6 14 16.1 102.76     Rain

Notes on Data Quality.

Legend

  • E = Estimated
  • M = Missing
  • NA = Not Available
Date modified: